CAPE
2 2 2 1 2 1 1 1 1 1 1 1 1 0 0 0 0 0 0 0 0 0 0 0 0 0 0 0 0 0 0 0 0 0 0 0 0 0 0 0 0 0 8 40 95
3 2 2 2 1 0 1 0 0 1 0 0 0 0 0 0 0 0 0 0 0 0 0 0 0 0 0 0 0 0 0 0 0 0 0 0 0 0 0 0 0 0 31 81 91
4 3 3 2 1 1 0 0 0 0 0 0 0 0 0 0 0 0 0 0 0 0 0 0 0 0 0 0 0 0 0 0 0 0 0 0 0 0 0 0 0 0 8 50 219
3 3 3 2 1 0 0 0 0 0 0 0 0 0 0 0 0 0 0 0 0 0 0 0 0 0 0 0 0 0 0 0 0 0 0 0 0 6 0 0 0 0 1 64 61
4 2 2 1 0 0 0 0 0 0 0 0 0 0 0 0 0 0 0 0 0 0 0 0 0 0 0 0 0 0 0 0 0 0 0 0 0 0 0 0 0 0 0 30 72
1 1 0 1 0 0 0 0 0 0 0 0 0 0 0 0 0 0 0 0 0 0 0 0 0 0 0 0 0 0 0 0 0 0 0 0 0 0 0 0 0 0 0 61 0
0 1 0 0 0 0 0 0 0 0 0 0 0 0 0 0 0 0 0 0 0 0 0 0 0 0 0 0 0 0 0 0 0 0 0 0 0 0 0 0 0 0 0 0 31
1 1 3 1 0 0 0 0 0 0 0 0 0 0 0 0 0 0 0 0 0 0 0 0 0 0 0 0 0 0 0 0 0 0 0 0 0 0 0 0 0 0 0 0 0
1 2 2 2 0 0 0 0 0 0 0 0 0 0 0 0 0 0 0 0 0 0 0 0 0 0 0 0 0 0 0 0 0 0 0 0 0 0 0 0 0 0 0 0 10
2 2 0 2 1 0 0 0 0 0 0 0 0 0 0 0 0 0 0 0 0 0 0 0 0 0 0 0 0 0 0 0 0 0 0 0 0 0 0 0 0 0 0 0 2
1 2 0 2 1 0 0 0 0 0 0 0 0 0 0 0 0 0 0 0 0 0 0 0 0 0 0 0 0 0 0 0 0 0 0 0 0 0 0 0 0 0 0 0 0
1 2 1 0 0 0 0 0 0 0 0 0 0 0 0 0 0 0 0 0 0 0 0 0 0 0 0 0 0 0 0 0 0 0 0 0 0 0 0 0 0 0 0 0 0
0 1 1 0 0 0 0 0 0 0 0 0 0 0 0 0 0 0 0 0 0 0 0 0 0 0 0 0 0 0 0 0 0 0 0 0 0 0 0 0 0 0 0 0 0
0 1 0 0 0 0 0 0 0 0 0 0 0 0 0 0 0 0 0 0 0 0 0 0 0 0 0 0 0 0 0 0 0 0 0 0 0 0 0 0 0 0 0 0 0
0 0 0 0 0 0 0 0 0 0 0 0 0 0 0 0 0 0 0 0 0 0 0 0 0 0 0 0 0 0 0 0 0 0 0 0 0 0 0 0 0 0 0 0 0
0 0 0 0 0 0 0 0 0 0 1 0 0 0 0 0 0 0 0 0 1 0 0 1 1 3 17 6 6 1 0 2 2 2 0 0 0 0 0 0 0 0 1 0 0
0 0 0 0 0 0 0 0 0 0 0 0 0 0 0 0 0 0 0 0 2 0 1 2 18 18 19 11 7 63 2 13 9 11 0 0 0 0 0 0 0 0 0 0 0
0 0 0 0 0 0 0 0 0 0 1 0 0 0 0 0 0 0 0 6 4 0 0 2 7 43 16 0 21 23 1 10 13 8 1 0 0 0 0 0 0 0 0 2 0
0 0 0 0 0 0 0 0 0 0 0 0 0 1 0 0 0 2 12 21 4 0 0 5 4 19 4 5 76 53 15 8 3 48 15 0 0 0 0 0 0 0 0 4 0
0 0 4 0 0 0 0 0 0 0 0 0 0 6 8 7 8 19 22 15 9 7 3 8 5 24 15 2 9 121 24 34 78 6 0 4 0 1 0 12 0 0 0 0 44
0 2 0 0 0 0 1 9 0 0 0 0 1 5 15 17 27 20 8 11 23 14 10 13 7 0 36 20 48 128 141 111 9 17 9 1 0 20 48 1 0 0 3 148 22
0 0 0 0 0 10 0 0 0 0 0 0 8 13 7 6 10 7 7 25 5 1 9 35 8 0 8 1 18 72 98 55 17 0 32 24 0 41 0 0 0 0 33 31 156
0 0 0 0 0 0 0 3 10 0 0 0 7 4 13 7 2 2 13 17 9 9 9 6 1 0 0 1 60 83 0 3 92 29 2 7 0 12 0 0 0 0 0 0 0
0 0 1 0 0 4 1 0 6 10 2 1 1 5 6 13 6 6 8 8 1 2 0 3 3 0 4 11 4 0 0 0 34 31 20 5 8 2 0 0 0 0 0 0 0
2 0 0 0 0 0 0 0 7 5 1 5 2 6 8 5 2 3 4 1 8 11 25 0 0 4 11 17 26 51 3 1 28 11 11 0 0 0 1 0 0 0 0 0 0
0 0 0 0 0 0 2 0 0 4 0 0 1 4 4 2 3 1 4 1 2 7 16 2 1 4 13 20 21 23 13 0 0 11 0 0 0 0 0 0 0 0 0 0 0
3 7 7 0 0 0 1 0 0 0 0 1 2 3 5 3 7 0 0 0 1 3 0 1 5 7 1 4 1 0 6 39 57 42 5 0 9 14 0 0 2 0 0 0 0
CIN
-0 0 -0 0 0 -0 0 -0 0 0 0 0 0 0 0 0 0 0 0 0 0 0 0 0 0 0 0 0 0 0 0 0 0 0 0 0 0 0 0 0 0 0 -10 -12 -6
0 0 -0 0 -0 0 -0 0 0 0 0 0 0 0 0 0 0 0 0 0 0 0 0 0 0 0 0 0 0 0 0 0 0 0 0 0 0 0 0 0 0 0 -4 -24 -14
-0 -0 0 -0 0 0 0 0 0 0 0 0 0 0 0 0 0 0 0 0 0 0 0 0 0 0 0 0 0 0 0 0 0 0 0 0 0 0 0 0 0 0 -4 -24 -11
0 0 0 -0 0 0 0 0 0 0 0 0 0 0 0 0 0 0 0 0 0 0 0 0 0 0 0 0 0 0 0 0 0 0 0 0 0 -4 0 0 0 0 -4 -10 -27
0 -0 -0 0 -0 0 0 0 0 0 0 0 0 0 0 0 0 0 0 0 0 0 0 0 0 0 0 0 0 0 0 0 0 0 0 0 0 0 0 0 0 0 0 -3 -35
0 0 0 -0 0 0 0 0 0 0 0 0 0 0 0 0 0 0 0 0 0 0 0 0 0 0 0 0 0 0 0 0 0 0 0 0 0 0 0 0 0 0 0 -15 -5
0 0 0 0 0 0 0 0 0 0 0 0 0 0 0 0 0 0 0 0 0 0 0 0 0 0 0 0 0 0 0 0 0 0 0 0 0 0 0 0 0 0 0 0 -19
0 0 0 -0 0 0 0 0 0 0 0 0 0 0 0 0 0 0 0 0 0 0 0 0 0 0 0 0 0 0 0 0 0 0 0 0 0 0 0 0 0 0 0 0 0
0 0 0 -0 0 0 0 0 0 0 0 0 0 0 0 0 0 0 0 0 0 0 0 0 0 0 0 0 0 0 0 0 0 0 0 0 0 0 0 0 0 0 0 0 -79
-0 0 0 0 0 0 0 0 0 0 0 0 0 0 0 0 0 0 0 0 0 0 0 0 0 0 0 0 0 0 0 0 0 0 0 0 0 0 0 0 0 0 0 0 -46
0 0 -0 0 0 0 0 0 0 0 0 0 0 0 0 0 0 0 0 0 0 0 0 0 0 0 0 0 0 0 0 0 0 0 0 0 0 0 0 0 0 0 0 0 0
0 0 0 0 0 0 0 0 0 0 0 0 0 0 0 0 0 0 0 0 0 0 0 0 0 0 0 0 0 0 0 0 0 0 0 0 0 0 0 0 0 0 0 0 0
0 0 0 0 0 0 0 0 0 0 0 0 0 0 0 0 0 0 0 0 0 0 0 0 0 0 0 0 0 0 0 0 0 0 0 0 0 0 0 0 0 0 0 0 0
0 0 0 0 0 0 0 0 0 0 0 0 0 0 0 0 0 0 0 0 0 0 0 0 0 0 0 0 0 0 0 0 0 0 0 0 0 0 0 0 0 0 0 0 0
0 0 0 0 0 0 0 0 0 0 0 0 0 0 0 0 0 0 0 0 0 0 0 0 0 0 -0 0 0 0 0 0 0 0 0 0 0 0 0 0 0 0 0 0 0
0 0 0 0 0 0 0 0 0 -0 -0 0 0 0 0 0 0 0 0 0 -4 0 0 -4 -7 -9 -9 -24 -20 -10 0 -4 -1 -9 -0 0 0 0 0 0 0 0 -2 -1 0
0 0 0 0 0 0 0 0 0 -0 0 0 0 0 0 0 0 0 0 0 -4 -1 -3 -5 -6 -14 -40 -23 -21 -9 -3 -8 -5 -5 0 0 0 0 0 0 0 0 0 0 0
0 0 0 0 0 0 0 0 -0 0 -3 0 0 0 0 -6 0 0 0 -5 -6 0 -1 -5 -3 -8 -23 0 -5 -7 -7 -42 -9 -11 -7 0 -2 0 0 0 0 0 0 -6 0
0 0 0 0 0 0 0 -2 -15 0 0 0 0 -1 -3 -4 -0 -4 -4 -5 -5 0 -1 -8 -4 -9 -12 -8 -5 -4 -12 -31 -1 -9 -6 0 0 0 0 0 0 0 0 -2 0
0 0 -3 0 0 0 0 0 -0 0 0 0 0 -2 -4 -4 -5 -3 -3 -5 -4 -17 -5 -4 -1 -4 -8 -1 -24 -12 -30 -19 -13 -13 -2 -4 0 -8 0 -5 0 0 0 0 -3
0 -5 0 0 0 0 -2 -2 0 0 0 0 -1 -3 -3 -3 -2 -3 -5 -4 -7 -9 -14 -6 -3 0 -11 -18 -7 -8 -6 -14 -28 -15 -3 -4 -0 -2 -80 -49 0 0 -6 -4 -10
0 -1 0 0 0 -6 0 0 0 0 0 -0 -2 -5 -3 -2 -2 -3 -3 -3 -25 -3 -1 -8 -8 0 -4 -18 -20 -22 -4 -26 -4 0 -5 -4 0 -31 0 0 0 0 -79 -37 -4
0 0 0 0 0 0 0 -3 -3 0 0 0 -3 -5 -3 -2 -1 -1 -3 -2 -6 -14 -4 -0 -2 -0 0 -5 -48 -54 0 -76 -15 -21 -5 -2 0 -14 0 0 0 0 0 0 0
0 0 -2 0 0 -2 -0 0 -4 -2 -1 -1 -1 -2 -2 -2 -4 -3 -3 -4 -10 -16 0 -1 0 -1 -1 -5 -13 0 0 0 -14 -6 -18 -5 -4 -4 0 0 0 0 0 0 0
-7 0 0 0 0 0 0 0 -1 -3 -2 -3 -2 -4 -3 -2 -3 -2 -3 -5 -4 -5 -1 0 0 -1 -2 -4 -6 -11 -20 -65 -17 -5 -4 0 0 0 -22 0 0 0 0 0 0
0 0 0 0 0 0 -7 -0 -1 -3 0 0 -1 -4 -3 -2 -2 -1 -1 -0 -1 -3 -0 -1 0 -1 -3 -4 -3 -7 -5 -0 0 -8 -18 0 0 0 0 0 0 0 0 0 0
-1 -1 0 0 0 0 -1 0 0 0 0 -1 -1 -2 -2 -3 -3 -1 0 0 -0 -0 0 0 0 -0 -0 -3 -8 0 -2 -16 -5 -5 -11 -1 -4 -3 0 0 -13 0 0 0 0
Wind_Speed
29 29 29 29 29 29 29 28 28 29 29 30 31 31 32 32 34 32 24 20 24 28 30 31 29 29 28 31 36 35 41 43 41 40 38 37 38 38 29 32 35 35 30 23 24
29 29 29 28 28 28 28 27 27 28 28 29 29 30 31 31 31 28 14 20 27 28 27 27 27 25 31 30 29 30 38 39 42 39 37 37 37 39 33 34 33 36 26 18 4
29 29 29 28 28 28 28 28 28 28 29 30 30 31 30 29 24 13 14 22 25 26 26 29 30 29 34 32 33 31 46 35 46 46 41 44 41 34 36 37 34 32 28 17 19
30 29 29 29 29 29 29 29 29 30 30 31 31 31 30 23 22 14 17 20 22 21 24 25 26 28 33 35 31 38 35 41 54 50 50 50 45 40 38 39 40 35 33 22 25
30 30 29 29 29 30 30 30 30 31 31 32 31 29 25 19 20 14 19 19 23 22 25 25 27 29 35 34 35 42 46 49 50 47 50 52 53 48 40 41 43 41 37 29 24
31 31 31 31 31 31 31 32 32 32 32 32 29 27 21 28 19 20 21 23 23 25 26 26 27 30 37 38 39 40 48 52 51 52 46 47 53 47 52 41 43 44 43 24 27
30 31 32 32 33 33 32 32 33 33 33 30 26 23 24 25 20 21 23 26 26 23 25 26 29 28 32 37 35 38 49 48 53 47 47 44 52 52 53 50 47 44 46 42 26
29 30 30 31 31 31 32 32 33 33 32 24 21 20 19 16 21 20 26 27 25 28 30 27 27 31 33 35 42 42 44 48 46 42 46 40 58 53 50 47 48 48 47 48 44
31 32 31 29 27 27 28 29 29 30 21 19 18 14 22 13 17 23 27 27 29 28 28 26 26 31 33 35 40 35 49 48 51 41 42 39 55 54 47 46 54 49 49 50 48
31 31 29 26 25 24 25 23 3 18 13 12 14 17 17 17 24 27 26 27 29 28 29 25 25 31 31 32 44 42 43 43 50 47 45 45 48 57 49 49 47 49 46 49 49
35 33 30 27 22 18 25 20 17 17 9 16 27 19 25 20 24 23 24 26 27 27 32 30 33 35 36 35 40 43 45 51 52 50 48 45 48 58 48 48 49 45 42 44 54
35 34 32 26 19 16 6 17 23 22 29 3 10 12 18 17 22 25 24 27 31 33 33 34 34 32 34 35 40 43 47 52 52 48 46 50 54 55 47 50 44 43 44 44 43
36 35 33 29 23 6 9 21 22 25 21 19 13 12 10 12 19 28 22 27 31 34 33 35 36 38 39 40 42 40 43 48 50 46 44 52 56 54 54 51 47 47 45 40 40
39 36 33 28 20 17 15 23 24 24 20 14 13 14 14 16 18 19 20 24 29 34 35 36 37 39 39 40 38 46 41 46 47 48 52 42 61 52 54 53 47 50 51 43 40
39 37 32 22 24 21 24 26 25 16 21 15 15 15 15 14 20 23 18 22 28 32 32 37 37 37 41 42 41 48 45 44 45 50 51 50 50 59 51 56 51 45 44 46 45
40 36 30 18 15 19 24 25 17 18 20 16 16 18 21 22 23 21 22 16 22 29 29 34 33 35 38 41 41 44 46 46 47 47 56 53 50 60 53 53 52 47 42 39 40
33 34 28 23 22 25 26 19 18 18 18 18 23 27 27 24 20 23 25 25 29 33 35 37 36 29 32 36 36 32 35 45 45 46 55 46 48 50 54 49 52 48 44 43 41
34 15 12 8 21 23 23 18 17 21 26 28 27 28 22 20 22 23 26 24 23 27 33 37 40 29 21 33 36 30 27 34 40 47 50 44 47 48 44 46 48 48 47 39 37
23 15 14 10 15 19 18 16 19 25 27 28 29 25 23 25 27 23 22 23 22 24 29 33 33 36 38 36 32 34 31 21 34 41 46 47 48 46 44 45 43 45 41 39 37
10 10 12 14 16 16 15 14 19 22 25 26 24 22 28 30 27 23 24 21 24 26 23 23 28 35 39 33 35 32 33 33 27 34 43 40 39 39 31 36 37 39 36 32 27
14 14 16 14 14 12 15 18 26 28 25 22 24 25 27 27 22 19 19 22 24 29 28 13 10 13 10 30 32 31 26 21 25 29 35 35 31 28 28 30 34 36 40 22 23
14 18 17 13 12 13 16 22 20 20 21 17 18 21 23 23 21 20 19 18 23 29 25 27 18 23 15 34 38 38 33 19 34 36 36 34 40 28 27 31 28 29 20 30 23
17 16 16 16 18 17 16 20 22 21 23 22 21 23 20 21 21 15 14 4 27 29 23 27 17 10 17 24 21 25 31 34 34 31 32 34 35 31 31 29 29 25 23 29 21
17 21 18 17 14 17 24 22 24 24 20 20 18 17 19 17 14 10 15 8 20 16 15 13 13 10 16 32 29 35 37 32 32 33 29 31 33 30 26 27 28 26 24 29 25
19 21 21 18 19 17 20 19 16 23 24 21 23 20 18 17 12 19 8 17 9 11 11 9 4 5 13 30 40 41 38 36 39 38 38 37 35 33 23 20 23 25 27 28 21
22 22 19 13 16 14 16 18 15 17 24 18 12 20 19 7 9 23 20 14 11 12 7 10 6 6 10 14 26 40 41 44 43 42 43 40 37 33 28 26 31 32 28 23 22
22 19 20 16 18 19 19 17 14 12 15 12 13 10 5 8 26 25 23 25 18 21 6 11 11 3 10 10 18 15 16 19 41 39 41 41 34 31 31 31 32 25 24 24 24
Wind_Direction
323 320 314 309 306 305 304 300 300 302 301 298 295 294 294 294 288 281 292 301 295 293 291 283 281 277 273 270 265 265 265 264 263 265 269 272 272 270 276 273 268 262 271 293 278
324 319 316 311 309 307 305 303 302 301 300 299 298 298 297 299 292 289 316 310 297 293 287 286 282 280 271 271 265 261 263 262 263 270 273 274 272 272 277 272 269 259 276 287 314
320 319 317 313 309 309 308 306 305 303 302 301 300 299 301 302 304 321 331 316 301 293 287 282 284 281 273 270 264 260 259 264 264 265 271 269 273 277 270 268 264 267 270 277 273
324 320 316 312 310 309 307 307 307 306 304 302 302 303 302 313 301 332 334 321 311 307 296 292 286 280 275 272 271 264 265 267 259 266 267 265 270 273 265 268 264 274 263 276 264
320 318 313 308 304 303 302 300 300 302 303 306 307 311 315 313 310 345 331 323 313 306 299 296 290 285 276 277 274 267 266 265 265 269 266 266 265 267 269 267 265 270 268 267 263
321 317 313 308 304 301 300 301 301 300 297 297 303 308 313 298 326 327 323 318 315 308 302 297 294 288 282 280 274 275 270 266 266 265 268 266 264 267 260 265 265 265 262 269 257
314 311 309 307 305 302 299 299 301 299 301 310 319 322 308 303 325 321 316 312 312 313 305 301 298 294 289 284 282 279 273 272 266 270 269 271 267 262 262 261 263 264 261 265 254
309 305 303 299 295 292 293 294 294 296 301 322 331 326 312 337 324 324 318 311 314 307 301 303 301 294 290 287 280 279 278 271 271 272 271 273 265 264 265 263 261 262 264 259 263
313 309 302 294 286 281 280 278 280 297 336 337 336 342 321 341 330 325 318 314 312 311 308 306 302 294 292 287 282 279 273 274 273 274 274 267 267 265 268 267 260 261 263 263 262
310 308 300 290 280 274 274 263 225 344 11 12 349 332 326 324 321 318 321 317 313 312 310 308 301 294 290 284 275 279 278 277 273 273 274 273 268 266 266 266 266 261 261 261 262
314 310 302 293 275 263 288 8 11 11 29 336 311 321 315 329 329 327 331 323 319 312 306 309 298 291 290 287 283 284 280 276 275 277 280 277 273 265 267 265 263 264 265 264 260
313 310 304 293 269 250 51 20 356 347 324 340 340 336 330 334 327 326 332 320 317 310 309 305 297 298 298 292 287 283 280 277 279 281 281 276 272 270 271 266 267 265 262 264 268
313 309 307 299 281 32 52 1 1 351 349 357 18 21 26 1 335 328 336 326 317 311 310 303 301 300 296 292 288 286 283 281 280 284 282 276 272 269 267 270 271 270 271 263 263
318 312 308 300 5 21 21 358 354 355 353 15 26 22 13 2 341 351 340 333 323 314 311 307 306 301 297 292 292 284 286 283 283 281 276 279 270 269 268 268 271 267 268 267 265
317 313 308 345 341 3 347 347 348 16 345 14 16 23 12 3 348 346 354 338 326 320 317 310 308 306 298 292 292 287 289 285 283 279 279 274 272 268 269 267 268 270 267 267 267
315 310 305 1 17 4 353 350 15 357 342 0 8 1 352 347 342 351 345 340 329 321 317 312 313 309 304 299 295 295 287 285 280 278 272 273 272 269 269 268 268 270 272 269 267
306 303 309 330 340 347 348 2 354 345 3 357 348 341 341 342 349 348 347 340 335 330 326 322 316 325 319 307 300 294 287 280 276 271 272 276 273 273 272 273 266 268 270 276 275
305 280 29 20 346 349 350 359 349 340 334 339 341 338 343 353 351 352 344 344 350 343 332 329 320 326 326 306 305 294 294 279 278 276 277 281 277 276 281 277 272 269 269 272 277
298 30 38 52 18 5 3 358 355 340 338 340 337 344 350 350 349 348 350 348 352 350 340 334 329 305 286 293 293 284 288 296 294 286 281 281 283 281 279 275 271 266 265 271 271
26 60 53 46 25 17 12 2 350 354 349 343 342 348 342 343 348 349 351 354 351 341 350 350 335 295 279 292 280 244 274 291 300 290 285 282 279 286 284 282 268 264 267 265 269
58 63 63 57 41 39 10 356 342 343 348 351 341 342 344 347 353 352 348 346 348 335 339 338 319 272 269 245 275 283 296 258 313 294 291 285 288 247 301 297 286 268 256 262 272
73 58 70 65 48 42 21 5 1 357 354 354 353 350 351 351 349 346 348 354 350 345 344 344 346 266 256 254 267 268 272 301 280 274 267 277 248 295 294 287 279 279 260 266 277
56 57 70 65 37 28 20 7 0 357 352 348 349 350 355 351 349 5 354 292 344 339 349 341 346 303 256 243 300 277 275 274 269 266 253 249 233 283 299 280 274 261 253 252 288
52 45 52 39 45 24 7 3 356 352 353 357 356 360 355 354 357 355 258 279 3 3 359 354 342 313 248 246 290 275 271 257 251 243 245 238 254 270 282 277 253 259 261 271 270
48 43 39 29 20 16 15 6 10 358 353 354 349 353 354 350 356 252 241 271 281 12 30 52 342 266 237 244 264 257 246 244 243 250 242 257 258 265 245 254 250 249 253 255 266
39 36 32 20 28 26 26 17 13 10 357 354 2 358 356 350 237 260 264 267 274 264 18 11 322 257 247 234 238 263 259 258 256 269 258 259 257 260 254 251 256 243 250 258 256
40 43 35 35 29 23 23 19 12 5 15 20 4 346 316 246 257 258 264 264 259 257 6 25 18 321 249 228 254 228 230 240 274 274 267 255 272 284 256 251 255 275 267 252 250